XNO722 WMKP-WMKL

Flight info

Callsign XNO722
Flight time 0h 18m
Altitude 10000
Route OMBOK DCT KAPKO KAPKO1E
Aircraft A320/M-SDE3FGHIRWY/LB1

Departure

Time 2026-04-26 00:19
Airport Penang International Airport (WMKP)

Arrival

Time 2026-04-26 00:37
Airport Langkawi International Airport (WMKL)
Time Latitude Longitude Altitude Speed Heading
2026-04-25 23:33 5.29224 100.26645 23 ft 0 kts 311°
2026-04-26 00:11 5.29216 100.26655 26 ft 4 kts 309°
2026-04-26 00:11 5.29199 100.26676 23 ft 4 kts 308°
2026-04-26 00:12 5.29181 100.26696 24 ft 3 kts 321°
2026-04-26 00:12 5.29165 100.26710 24 ft 4 kts 309°
2026-04-26 00:12 5.29157 100.26727 23 ft 4 kts 232°
2026-04-26 00:12 5.29174 100.26744 23 ft 2 kts 222°
2026-04-26 00:13 5.29175 100.26745 23 ft 0 kts 222°
2026-04-26 00:14 5.29170 100.26739 24 ft 8 kts 225°
2026-04-26 00:15 5.29100 100.26663 25 ft 16 kts 222°
2026-04-26 00:15 5.29006 100.26595 23 ft 13 kts 201°
2026-04-26 00:15 5.28954 100.26633 25 ft 9 kts 133°
2026-04-26 00:15 5.28888 100.26670 24 ft 12 kts 187°
2026-04-26 00:16 5.28833 100.26626 24 ft 9 kts 219°
2026-04-26 00:16 5.28768 100.26583 23 ft 13 kts 199°
2026-04-26 00:16 5.28685 100.26593 24 ft 11 kts 137°
2026-04-26 00:16 5.28671 100.26608 23 ft 0 kts 132°
2026-04-26 00:17 5.28642 100.26641 24 ft 15 kts 132°
2026-04-26 00:17 5.28643 100.26711 25 ft 8 kts 47°
2026-04-26 00:17 5.28657 100.26725 23 ft 0 kts 43°
2026-04-26 00:18 5.28685 100.26751 25 ft 28 kts 42°
2026-04-26 00:18 5.29027 100.27061 30 ft 100 kts 42°
2026-04-26 00:18 5.29692 100.27665 24 ft 155 kts 41°
2026-04-26 00:19 5.30561 100.28458 402 ft 170 kts 42°
2026-04-26 00:19 5.31453 100.29253 1076 ft 177 kts 41°
2026-04-26 00:19 5.32445 100.30125 1349 ft 202 kts 41°
2026-04-26 00:19 5.33561 100.31107 1728 ft 225 kts 41°
2026-04-26 00:20 5.34784 100.32190 2218 ft 244 kts 41°
2026-04-26 00:20 5.36141 100.33232 3102 ft 243 kts 31°
2026-04-26 00:20 5.37677 100.33916 3904 ft 252 kts 21°
2026-04-26 00:20 5.39463 100.34284 4066 ft 273 kts 359°
2026-04-26 00:21 5.41310 100.33791 4851 ft 279 kts 330°
2026-04-26 00:21 5.42769 100.32534 5658 ft 284 kts 312°
2026-04-26 00:21 5.44173 100.31093 6525 ft 287 kts 316°
2026-04-26 00:21 5.45650 100.29731 7348 ft 290 kts 319°
2026-04-26 00:22 5.47153 100.28398 8124 ft 294 kts 319°
2026-04-26 00:22 5.48699 100.27028 8878 ft 299 kts 319°
2026-04-26 00:22 5.50259 100.25631 9598 ft 303 kts 319°
2026-04-26 00:22 5.51836 100.24199 9917 ft 307 kts 319°
2026-04-26 00:23 5.53414 100.22752 9998 ft 307 kts 319°
2026-04-26 00:23 5.54986 100.21301 10014 ft 307 kts 319°
2026-04-26 00:23 5.56555 100.19846 10015 ft 307 kts 319°
2026-04-26 00:23 5.58124 100.18391 10012 ft 307 kts 319°
2026-04-26 00:24 5.59694 100.16938 10010 ft 307 kts 319°
2026-04-26 00:24 5.61264 100.15482 10013 ft 307 kts 319°
2026-04-26 00:24 5.62833 100.14028 10012 ft 307 kts 319°
2026-04-26 00:24 5.64405 100.12576 10007 ft 307 kts 319°
2026-04-26 00:25 5.65975 100.11122 10010 ft 307 kts 319°
2026-04-26 00:25 5.67544 100.09668 10008 ft 307 kts 319°
2026-04-26 00:25 5.69113 100.08211 10016 ft 307 kts 319°
2026-04-26 00:25 5.70682 100.06756 10019 ft 307 kts 319°
2026-04-26 00:26 5.72252 100.05303 10016 ft 307 kts 319°
2026-04-26 00:26 5.73970 100.04052 10012 ft 305 kts 333°
2026-04-26 00:26 5.75875 100.03130 10007 ft 304 kts 336°
2026-04-26 00:26 5.77787 100.02220 10006 ft 304 kts 336°
2026-04-26 00:27 5.79698 100.01302 9927 ft 304 kts 336°
2026-04-26 00:27 5.81606 100.00384 9804 ft 304 kts 336°
2026-04-26 00:27 5.83508 99.99469 9679 ft 303 kts 336°
2026-04-26 00:27 5.85408 99.98556 9553 ft 302 kts 336°
2026-04-26 00:28 5.87304 99.97645 9428 ft 302 kts 336°
2026-04-26 00:28 5.89198 99.96734 9339 ft 302 kts 336°
2026-04-26 00:28 5.91090 99.95827 9236 ft 301 kts 336°
2026-04-26 00:28 5.92978 99.94920 9117 ft 300 kts 334°
2026-04-26 00:29 5.94748 99.93803 8991 ft 301 kts 323°
2026-04-26 00:29 5.96286 99.92376 8865 ft 302 kts 312°
2026-04-26 00:29 5.97542 99.90689 8738 ft 302 kts 302°
2026-04-26 00:29 5.98636 99.88887 8615 ft 302 kts 302°
2026-04-26 00:30 5.99735 99.87097 8491 ft 301 kts 302°
2026-04-26 00:30 6.00835 99.85317 8406 ft 300 kts 302°
2026-04-26 00:30 6.01934 99.83537 8307 ft 300 kts 302°
2026-04-26 00:30 6.03031 99.81760 8184 ft 299 kts 302°
2026-04-26 00:31 6.04126 99.79985 8065 ft 298 kts 302°
2026-04-26 00:31 6.05218 99.78216 7944 ft 297 kts 302°
2026-04-26 00:31 6.06305 99.76453 7824 ft 297 kts 302°
2026-04-26 00:31 6.07390 99.74693 7437 ft 295 kts 302°
2026-04-26 00:32 6.08464 99.72950 6933 ft 293 kts 302°
2026-04-26 00:32 6.09526 99.71223 6428 ft 289 kts 302°
2026-04-26 00:32 6.11735 99.67902 5391 ft 283 kts 313°
2026-04-26 00:33 6.13229 99.66634 4850 ft 282 kts 324°
2026-04-26 00:33 6.14732 99.65320 4115 ft 291 kts 316°
2026-04-26 00:33 6.16377 99.64134 3405 ft 292 kts 339°
2026-04-26 00:33 6.18276 99.63778 3088 ft 270 kts
2026-04-26 00:34 6.20027 99.64144 2804 ft 245 kts 25°
2026-04-26 00:34 6.21427 99.64970 2517 ft 227 kts 35°
2026-04-26 00:34 6.22723 99.65855 2236 ft 221 kts 34°
2026-04-26 00:34 6.23962 99.66702 1939 ft 210 kts 34°
2026-04-26 00:35 6.25133 99.67503 1686 ft 196 kts 34°
2026-04-26 00:35 6.26223 99.68248 1428 ft 184 kts 34°
2026-04-26 00:35 6.27235 99.68940 1176 ft 170 kts 34°
2026-04-26 00:35 6.28183 99.69587 958 ft 160 kts 34°
2026-04-26 00:36 6.29086 99.70203 751 ft 154 kts 34°
2026-04-26 00:36 6.29966 99.70803 550 ft 152 kts 34°
2026-04-26 00:36 6.30836 99.71398 351 ft 151 kts 34°
2026-04-26 00:36 6.31700 99.71988 151 ft 150 kts 34°
2026-04-26 00:37 6.32539 99.72566 37 ft 138 kts 36°
2026-04-26 00:37 6.33220 99.73035 32 ft 95 kts 34°
2026-04-26 00:37 6.33614 99.73300 32 ft 39 kts 33°
2026-04-26 00:37 6.33754 99.73342 32 ft 6 kts 310°
2026-04-26 00:38 6.33769 99.73323 32 ft 7 kts 308°
2026-04-26 00:38 6.33796 99.73282 32 ft 8 kts 303°
2026-04-26 00:38 6.33829 99.73233 32 ft 10 kts 304°
2026-04-26 00:38 6.33885 99.73200 32 ft 11 kts 10°
2026-04-26 00:39 6.33954 99.73243 31 ft 13 kts 33°
2026-04-26 00:39 6.34034 99.73298 32 ft 15 kts 35°
2026-04-26 00:39 6.34096 99.73323 32 ft 7 kts 320°
2026-04-26 00:39 6.34127 99.73278 32 ft 3 kts 304°